This demonstration page uses our WeatherBlox Daily Observations layout. Learn more.

Left ArrowRight Arrow

53.62937, 11.41316

Hourly Observations for October 4, 2022

Temp ( °F °C ) Dew Point ( °F °C ) Humidity (%) Winds ( mph kmh ) Pressure ( in mb ) Visibility ( mi km ) Precip ( " mm )
12:20 am 00:20 Clear 52 11 52 11 100 100 W 6 9 30.18 1022 6 10 0.00 0.00
12:50 am 00:50 Clear 52 11 52 11 100 100 W 6 9 30.18 1022 6 10 0.00 0.00
1:20 am 01:20 Clear 52 11 52 11 100 100 W 6 9 30.18 1022 6 10 0.00 0.00
1:50 am 01:50 Mostly Clear 52 11 52 11 100 100 W 5 7 30.18 1022 6 10 0.00 0.00
2:20 am 02:20 Mostly Cloudy 52 11 52 11 100 100 W 3 6 30.18 1022 6 9 0.00 0.00
2:50 am 02:50 Mostly Cloudy 52 11 50 10 94 94 W 3 6 30.15 1021 4 6 0.00 0.00
3:20 am 03:20 Mostly Cloudy 52 11 52 11 100 100 W 3 6 30.15 1021 1 1 0.00 0.00
3:50 am 03:50 Cloudy 52 11 50 10 94 94 VRB 2 4 30.15 1021 0 1 0.00 0.00
4:20 am 04:20 Mostly Cloudy 52 11 52 11 100 100 WSW 3 6 30.15 1021 0 1 0.00 0.00
4:50 am 04:50 Mostly Cloudy 52 11 52 11 100 100 VRB 2 4 30.15 1021 1 1 0.00 0.00
5:20 am 05:20 Partly Cloudy 52 11 52 11 100 100 VRB 1 2 30.15 1021 4 6 0.00 0.00
5:50 am 05:50 Partly Cloudy 52 11 52 11 100 100 VRB 2 4 30.15 1021 3 5 0.00 0.00
6:20 am 06:20 Mostly Clear 50 10 50 10 100 100 VRB 1 2 30.12 1020 4 7 0.00 0.00
6:50 am 06:50 Mostly Clear 50 10 50 10 100 100 VRB 2 4 30.12 1020 6 10 0.00 0.00
7:20 am 07:20 Mostly Clear 50 10 50 10 100 100 S 3 6 30.12 1020 6 10 0.00 0.00
7:50 am 07:50 Mostly Sunny 50 10 50 10 100 100 VRB 1 2 30.12 1020 6 10 0.00 0.00
8:20 am 08:20 Mostly Sunny 50 10 50 10 100 100 VRB 2 4 30.12 1020 6 10 0.00 0.00
8:50 am 08:50 Mostly Sunny 50 10 50 10 100 100 VRB 2 4 30.12 1020 6 10 0.00 0.00
9:20 am 09:20 Mostly Sunny 52 11 50 10 94 94 VRB 2 4 30.12 1020 6 10 0.00 0.00
9:50 am 09:50 Mostly Sunny 52 11 52 11 100 100 VRB 3 6 30.15 1021 6 10 0.00 0.00
10:20 am 10:20 Mostly Sunny 54 12 52 11 94 94 VRB 2 4 30.15 1021 6 10 0.00 0.00
10:50 am 10:50 Mostly Sunny 55 13 52 11 88 88 VRB 3 6 30.15 1021 6 10 0.00 0.00
11:20 am 11:20 Mostly Sunny 55 13 52 11 88 88 VRB 2 4 30.12 1020 6 10 0.00 0.00
11:50 am 11:50 Mostly Sunny 57 14 52 11 82 82 VRB 5 7 30.12 1020 6 10 0.00 0.00
12:20 pm 12:20 Mostly Sunny 59 15 52 11 77 77 VRB 5 7 30.12 1020 6 10 0.00 0.00
12:50 pm 12:50 Mostly Sunny 61 16 52 11 72 72 VRB 5 7 30.12 1020 6 10 0.00 0.00
1:20 pm 13:20 Mostly Sunny 61 16 52 11 72 72 VRB 6 9 30.12 1020 6 10 0.00 0.00
1:50 pm 13:50 Mostly Sunny 63 17 52 11 68 68 VRB 6 9 30.12 1020 6 10 0.00 0.00
2:20 pm 14:20 Mostly Sunny 63 17 52 11 68 68 VRB 7 11 30.09 1019 6 10 0.00 0.00
2:50 pm 14:50 Mostly Cloudy 63 17 52 11 68 68 VRB 6 9 30.09 1019 6 10 0.00 0.00
3:20 pm 15:20 Partly Cloudy 63 17 52 11 68 68 VRB 6 9 30.09 1019 6 10 0.00 0.00
3:50 pm 15:50 Partly Cloudy 63 17 52 11 68 68 VRB 5 7 30.09 1019 6 10 0.00 0.00
4:20 pm 16:20 Mostly Sunny 63 17 52 11 68 68 VRB 5 7 30.06 1018 6 10 0.00 0.00
4:50 pm 16:50 Mostly Sunny 63 17 50 10 63 63 VRB 6 9 30.06 1018 6 10 0.00 0.00
5:20 pm 17:20 Mostly Sunny 63 17 52 11 68 68 VRB 5 7 30.06 1018 6 10 0.00 0.00
5:50 pm 17:50 Mostly Sunny 63 17 52 11 68 68 VRB 3 6 30.06 1018 6 10 0.00 0.00
6:20 pm 18:20 Mostly Sunny 61 16 50 10 68 68 S 5 7 30.03 1017 6 10 0.00 0.00
6:50 pm 18:50 Mostly Clear 57 14 52 11 82 82 S 3 6 30.03 1017 6 10 0.00 0.00
7:20 pm 19:20 Mostly Clear 57 14 50 10 77 77 S 3 6 30.03 1017 6 10 0.00 0.00
7:50 pm 19:50 Mostly Clear 55 13 50 10 82 82 S 3 6 30.03 1017 6 10 0.00 0.00
8:20 pm 20:20 Mostly Clear 55 13 50 10 82 82 S 3 6 30.03 1017 6 10 0.00 0.00
8:50 pm 20:50 Mostly Clear 55 13 50 10 82 82 S 3 6 30.03 1017 6 10 0.00 0.00
9:20 pm 21:20 Mostly Clear 54 12 50 10 88 88 S 5 7 30.03 1017 6 10 0.00 0.00
9:50 pm 21:50 Clear 54 12 50 10 88 88 S 3 6 30.03 1017 6 10 0.00 0.00
10:20 pm 22:20 Clear 54 12 48 9 82 82 VRB 2 4 30.03 1017 6 10 0.00 0.00
10:50 pm 22:50 Clear 54 12 48 9 82 82 SSW 3 6 30.03 1017 6 10 0.00 0.00
11:20 pm 23:20 Mostly Clear 54 12 50 10 88 88 S 3 6 30.03 1017 6 10 0.00 0.00
11:50 pm 23:50 Partly Cloudy 54 12 50 10 88 88 VRB 2 4 30.03 1017 6 10 0.00 0.00

Powered by AerisWeather